{"data":{"norad_id":58778,"epoch":"2026-05-25T00:46:05.061792Z","epoch_age_seconds":69680,"freshness":"FRESH","line1":"1 58778U 24011P   26145.03200303  .00003531  00000+0  13130-3 0  9994","line2":"2 58778  53.1609  19.4168 0001408  94.5606 265.5556 15.30196211131955","mean_motion":15.30196211,"eccentricity":0.0001408,"inclination_deg":53.1609,"raan_deg":19.4168,"arg_perigee_deg":94.5606,"mean_anomaly_deg":265.5556,"bstar":0.0001313,"rev_number":13195,"period_min":94.105578725681,"perigee_km":474.26142914941,"apogee_km":476.19133627798,"semimajor_km":6853.3633827137,"source":"CELESTRAK","updated_at":"2026-05-25T13:38:18.746692Z"}}